Temperature
19 18 19 19 19 19 19 19 19 19 19 19 19 19 19 19 19 19 19 19 19 19 19 19 19 19 19 19 19 19 19 19 19 19 19 19 19 19 19 19 18 18 18
19 19 20 19 19 19 19 19 19 19 19 19 19 19 19 19 19 19 19 19 19 19 19 19 19 19 19 19 19 19 19 19 19 19 19 19 19 19 19 19 19 18 19
19 19 20 19 19 19 19 19 19 19 19 19 19 19 19 19 19 19 19 19 19 19 19 19 19 19 19 19 19 19 19 19 19 19 19 18 18 19 19 19 19 19 19
19 19 19 20 19 19 19 19 19 19 19 19 19 19 19 19 19 19 19 19 19 19 18 18 18 18 18 18 18 18 18 19 19 19 18 18 18 19 19 19 19 19 19
19 19 19 20 20 19 19 19 19 19 19 19 19 19 19 19 19 19 19 19 19 18 18 18 18 18 18 18 18 18 18 18 18 18 18 18 18 19 19 19 19 19 19
19 18 19 20 19 19 19 19 19 19 19 19 19 19 19 19 19 19 19 19 18 18 18 18 18 18 18 18 18 18 18 18 18 18 18 18 18 19 19 19 18 18 19
19 18 19 20 19 19 19 19 19 19 19 19 19 19 19 19 19 19 19 18 18 18 18 18 18 18 18 18 18 18 18 18 18 18 18 18 18 18 18 18 18 18 18
19 18 18 19 19 19 19 19 19 19 19 19 19 19 19 18 18 18 18 18 18 18 18 18 18 18 18 18 18 18 18 18 17 17 18 18 18 18 18 18 18 18 18
19 19 18 18 19 19 19 19 19 19 19 19 19 18 18 18 18 18 18 18 18 18 18 18 18 18 18 17 17 17 18 18 17 17 17 17 18 18 18 18 18 18 18
19 19 19 18 18 18 18 19 18 18 18 18 18 18 18 18 18 18 18 18 17 18 18 18 18 18 18 18 17 17 17 18 17 17 17 17 18 18 18 18 18 18 18
19 19 19 19 18 18 18 18 18 18 18 18 18 18 18 17 17 17 17 17 17 17 18 18 18 18 18 18 18 17 17 17 17 17 17 18 18 18 18 18 18 18 18
19 19 19 19 18 18 18 18 18 18 18 18 17 17 17 17 17 17 17 18 17 18 18 18 18 18 18 17 17 17 17 17 17 17 17 18 18 18 18 18 18 18 18
20 19 19 19 19 18 18 18 18 18 18 17 17 17 17 17 17 17 17 17 17 17 17 18 17 17 17 17 17 17 17 17 17 17 17 17 18 18 18 18 18 18 18
20 20 19 19 19 18 18 18 18 18 18 18 17 17 17 17 17 17 17 17 16 16 16 17 17 17 17 18 18 18 17 17 17 17 17 17 17 17 17 18 18 18 18
21 20 20 19 19 19 18 18 18 18 18 18 18 18 17 17 17 17 17 17 17 17 17 17 17 17 17 17 17 17 17 17 17 16 16 17 17 17 17 17 17 17 17
21 21 20 19 19 19 18 18 18 18 18 18 18 17 18 17 17 17 17 17 17 17 17 17 17 17 17 17 17 17 17 17 17 16 16 16 17 17 17 17 17 17 17
22 21 21 20 19 19 19 18 18 18 18 18 18 18 18 18 17 17 17 17 17 17 17 17 17 17 17 17 17 17 17 17 16 16 16 16 16 16 17 17 17 17 17
22 22 21 20 19 19 19 18 18 18 18 18 18 18 18 18 17 17 17 17 17 17 17 17 17 17 17 17 17 17 17 16 16 16 16 16 16 16 16 16 16 16 17
22 22 21 20 20 19 19 18 18 18 18 18 18 17 17 18 18 17 17 17 17 17 17 17 17 17 17 17 17 17 17 16 16 16 16 16 16 16 16 16 16 16 17
22 22 21 20 20 20 19 19 18 18 18 18 17 17 17 17 17 17 17 17 17 17 17 17 17 17 17 17 17 17 16 16 16 16 16 16 16 16 16 16 16 16 17
21 22 22 21 20 20 19 19 19 18 18 18 18 18 18 17 17 17 17 17 17 17 17 17 17 17 16 16 16 16 16 16 17 16 16 16 16 16 16 16 16 16 16
21 21 22 21 21 20 20 20 19 19 18 18 18 18 18 18 17 17 17 17 17 17 17 16 16 16 16 16 16 16 17 17 16 16 16 16 16 16 16 16 16 16 16
20 21 21 21 21 20 20 20 20 19 19 19 18 18 18 18 18 17 17 17 17 17 17 17 16 16 16 16 16 16 17 17 17 17 16 16 16 16 16 16 16 16 15
19 20 21 21 20 20 20 20 20 19 18 18 18 18 18 18 18 17 17 17 17 17 17 16 16 16 16 16 16 16 16 17 17 17 16 16 16 16 16 16 16 16 15
18 19 20 20 20 19 19 19 19 18 18 17 17 17 17 17 17 17 17 17 17 17 16 16 16 16 16 16 15 15 15 15 16 16 16 16 16 16 16 16 16 15 15
17 18 18 19 19 18 18 18 18 17 17 16 16 17 17 17 17 17 17 17 16 16 16 16 16 16 16 15 15 15 15 15 15 15 15 16 16 16 16 16 15 15 15
Wind_Speed
12 14 17 15 15 15 15 14 14 13 12 12 12 11 10 10 9 8 8 7 7 7 7 7 8 8 7 7 7 7 6 6 6 6 5 4 3 3 4 3 1 3 5
15 16 18 16 16 15 15 14 14 13 12 12 12 11 10 10 9 8 8 8 7 7 7 7 8 8 8 8 8 8 7 7 7 6 5 5 5 5 5 4 5 6 5
17 17 18 16 16 15 15 14 14 13 12 12 12 11 10 9 9 8 8 7 7 7 7 7 7 7 8 8 8 8 7 7 6 5 3 3 6 6 5 5 6 7 6
16 16 17 16 15 15 15 14 14 13 13 13 12 11 10 9 8 8 8 7 7 7 7 7 7 7 7 7 7 7 6 6 6 4 3 4 4 7 5 5 7 8 8
15 15 16 16 15 15 14 14 14 13 13 13 12 11 10 9 8 8 8 8 8 8 8 7 7 7 7 7 6 5 5 4 4 4 2 3 4 6 5 5 6 7 7
15 15 16 15 15 14 14 14 13 13 13 13 12 11 10 9 8 8 8 8 8 9 9 8 8 8 7 6 6 6 6 4 4 1 2 2 4 5 4 4 5 6 7
15 14 16 15 14 14 13 13 14 14 14 13 12 11 10 9 8 8 8 8 8 9 9 9 9 8 7 7 7 8 7 2 1 2 2 2 4 3 3 4 4 5 6
14 14 15 15 14 14 13 14 14 14 14 13 12 11 10 8 8 7 7 7 7 8 8 8 8 7 7 7 8 8 6 3 4 3 2 2 4 1 2 2 3 5 5
13 13 13 16 15 14 13 14 14 14 14 13 13 12 10 9 7 7 6 6 7 7 7 7 6 6 6 6 7 7 6 3 3 4 3 4 3 1 1 1 2 4 5
13 13 12 13 14 15 15 14 14 14 14 13 13 12 11 9 8 7 7 6 6 6 6 6 6 5 5 5 6 6 4 3 4 3 3 6 4 2 1 2 2 3 4
12 12 12 12 12 12 13 15 14 14 13 13 13 12 12 10 9 9 7 7 6 6 6 6 5 5 4 6 6 4 4 1 3 3 4 7 4 3 3 2 2 3 4
14 13 12 11 11 11 10 12 12 13 13 13 12 13 11 8 6 5 11 6 6 6 7 5 5 6 7 7 8 7 3 2 0 2 5 5 3 2 2 2 2 2 3
13 13 12 12 11 11 9 9 9 9 10 12 12 12 9 8 7 7 8 9 8 8 7 7 8 5 4 3 3 3 1 1 1 1 5 4 3 1 1 1 2 2 2
12 13 13 13 12 12 10 9 9 8 9 9 11 12 9 7 6 7 6 7 7 6 4 5 3 5 4 5 3 2 2 1 1 1 5 4 3 2 1 2 2 2 2
13 13 14 14 13 12 10 8 9 9 8 10 9 10 10 7 7 7 7 6 7 6 6 5 5 4 3 3 2 1 2 2 1 1 3 5 3 3 1 1 2 2 3
14 14 13 14 13 12 11 10 9 9 9 9 9 11 11 9 7 7 7 7 7 7 6 5 5 4 4 3 2 2 2 2 2 1 1 4 4 3 2 1 1 1 1
13 14 14 14 14 14 13 12 9 9 10 9 9 11 12 10 9 8 7 7 7 8 7 5 4 4 4 4 4 2 2 2 2 2 2 1 4 5 4 3 2 2 2
13 13 14 12 14 14 13 11 9 9 9 9 9 10 12 12 11 8 7 7 8 7 6 5 5 5 5 5 4 3 2 2 0 2 1 2 2 3 6 6 5 4 3
13 14 14 15 15 15 14 11 10 9 9 9 9 10 11 12 12 9 7 7 9 7 6 6 5 5 5 4 4 4 3 3 1 1 1 1 3 2 4 7 6 5 4
14 15 16 16 16 15 13 12 10 9 9 9 9 9 12 11 11 9 6 8 8 7 7 7 6 5 4 5 5 5 5 4 4 3 2 1 2 2 1 2 4 6 5
14 17 17 17 17 14 12 12 11 10 9 8 8 10 12 12 11 9 7 7 7 8 8 8 7 7 6 6 5 6 6 7 7 5 5 4 4 2 3 3 2 2 4
13 16 18 19 17 16 12 12 10 10 8 8 7 9 11 12 12 10 9 8 8 8 9 10 9 7 7 7 7 6 6 7 7 8 7 6 6 5 5 4 4 3 2
11 14 15 17 17 16 13 9 8 7 5 5 6 6 9 11 11 11 10 9 9 9 9 11 11 11 8 8 9 7 6 6 4 6 9 8 7 6 6 6 5 5 4
9 9 12 13 15 14 13 11 10 6 4 3 3 4 6 8 9 10 10 9 9 9 9 10 12 10 10 9 9 9 9 5 5 4 6 8 9 9 8 6 7 6 6
9 6 4 7 10 12 12 12 10 6 4 2 1 2 3 5 7 8 8 8 8 8 9 9 10 11 10 10 10 9 10 7 9 7 5 5 6 8 9 9 7 8 7
8 5 3 6 9 11 12 13 13 10 7 3 0 1 2 3 4 7 7 7 7 7 7 8 9 10 10 11 10 10 9 9 10 9 8 7 6 6 8 8 9 8 9
Wind_Direction
157 152 145 148 148 146 142 138 135 133 132 131 131 131 130 127 124 122 121 119 117 115 111 106 105 107 113 122 131 137 132 122 111 104 101 94 92 96 94 78 262 123 100
152 150 148 150 150 149 147 144 142 140 139 138 135 132 128 124 121 118 116 115 112 111 108 105 104 104 107 109 115 120 119 115 109 104 106 116 100 95 91 73 21 70 95
149 148 152 152 152 152 152 151 149 147 145 143 138 133 129 125 122 118 114 110 106 106 105 102 104 104 103 104 109 113 115 116 116 118 175 122 107 102 94 89 81 85 93
150 151 152 151 153 154 156 156 155 152 150 146 142 137 132 129 125 121 115 109 105 102 100 101 101 99 98 98 103 109 114 121 130 179 181 103 103 101 99 96 94 92 94
153 152 146 153 153 154 156 158 158 156 154 150 145 141 137 133 130 125 117 109 102 97 94 95 96 94 91 87 92 101 109 123 154 227 93 95 95 101 104 103 102 100 100
156 155 150 157 156 156 157 160 160 159 157 155 151 147 142 138 134 130 121 112 103 95 88 86 89 87 80 74 80 92 94 106 194 151 136 135 108 107 114 117 117 110 106
162 160 156 161 160 161 161 162 163 163 161 159 157 153 148 143 139 135 128 117 108 100 91 84 82 78 70 68 84 95 90 91 110 115 147 128 94 112 140 143 133 120 117
165 165 160 163 166 167 166 166 167 166 166 164 162 158 153 148 142 138 132 125 115 105 95 87 82 75 67 68 89 95 81 347 97 90 95 98 84 136 153 146 140 136 135
169 170 169 169 173 173 173 172 172 170 171 170 167 163 158 152 148 145 139 134 125 116 107 98 90 81 74 72 87 96 90 36 51 66 76 78 77 96 130 137 154 157 154
176 177 178 178 176 176 177 177 177 175 174 174 172 168 161 158 158 154 163 140 137 130 120 112 105 99 92 87 96 107 134 209 54 71 61 71 55 57 93 119 149 162 164
183 185 185 183 182 181 178 172 180 180 179 178 178 172 175 180 169 173 140 134 147 138 129 123 119 123 140 126 115 136 201 95 77 49 62 55 46 60 80 99 129 158 164
187 190 189 191 185 185 182 174 186 183 182 189 184 178 189 179 169 159 124 155 154 145 143 132 143 173 208 160 149 192 171 136 119 71 75 48 32 55 77 84 103 138 159
189 190 194 194 192 189 186 183 185 184 185 192 187 181 189 176 171 176 166 169 170 178 170 155 191 172 170 140 163 163 95 292 337 52 87 50 359 2 104 119 123 144 167
192 193 195 198 194 196 193 189 189 187 186 188 191 186 184 188 187 177 186 176 175 181 175 188 179 158 160 162 156 127 124 300 328 344 82 53 355 315 250 190 186 192 194
194 196 197 199 201 197 197 196 197 195 191 190 190 193 189 189 192 180 187 182 192 180 180 191 197 164 168 141 101 64 55 40 17 42 96 78 27 1 314 224 215 217 213
199 199 196 199 201 201 196 200 203 197 193 197 190 200 194 191 193 186 191 185 189 189 189 197 197 189 195 176 153 84 42 46 51 80 77 122 101 56 36 10 199 182 190
208 204 198 199 199 201 203 202 200 201 195 197 195 203 197 194 194 193 193 188 188 190 194 201 191 207 201 189 183 164 100 46 30 67 75 73 126 109 81 69 88 107 116
219 215 203 199 202 200 202 202 201 202 200 199 197 204 204 199 199 194 195 195 193 192 197 194 207 200 194 201 195 185 174 134 88 53 113 127 109 115 104 79 74 83 94
231 222 212 205 204 201 198 201 203 201 200 203 201 202 209 207 205 197 200 199 193 199 205 205 207 212 203 200 203 205 213 200 185 227 175 102 112 133 120 110 101 78 71
240 229 221 210 207 201 197 199 196 202 201 204 206 205 212 214 214 210 203 211 202 202 208 214 205 213 217 207 214 214 221 224 224 230 237 227 217 159 130 140 160 121 94
249 235 224 215 207 200 195 196 193 196 199 203 208 211 213 218 220 222 221 216 209 212 213 215 211 208 215 214 218 223 224 229 234 218 229 232 217 195 213 185 207 201 150
255 243 231 218 208 200 194 194 193 191 197 198 204 213 218 223 224 227 226 224 219 220 219 218 215 216 213 212 223 232 235 220 224 226 222 232 234 202 226 212 197 197 211
273 251 238 224 209 197 185 178 168 161 161 175 201 214 222 227 228 228 230 226 225 221 221 218 217 220 219 219 229 229 237 238 215 208 219 222 229 224 223 220 216 199 192
308 270 244 223 207 186 171 166 163 166 162 178 189 208 220 225 229 228 230 227 225 224 224 222 222 225 223 221 222 231 241 255 239 217 210 225 226 225 227 215 222 215 203
335 313 244 203 178 164 160 155 139 120 103 69 47 230 229 225 227 228 228 227 228 227 228 226 224 225 225 226 222 218 224 233 245 249 237 218 221 227 227 223 215 217 211
4 21 82 129 134 141 141 137 129 123 112 101 358 248 231 221 221 224 224 224 226 227 228 228 228 227 232 233 231 227 223 223 226 230 235 237 240 233 221 220 223 217 214
Height
1527 1529 1529 1531 1533 1535 1537 1539 1540 1542 1543 1544 1545 1546 1546 1547 1547 1548 1548 1549 1550 1550 1551 1552 1552 1553 1553 1553 1554 1554 1554 1554 1554 1555 1555 1555 1555 1555 1554 1554 1554 1554 1553
1527 1529 1530 1532 1534 1536 1538 1540 1541 1543 1544 1545 1546 1547 1547 1548 1549 1549 1550 1550 1551 1551 1552 1552 1553 1553 1554 1554 1554 1555 1555 1555 1556 1556 1556 1556 1556 1556 1556 1555 1555 1555 1554
1527 1529 1530 1533 1535 1537 1539 1540 1542 1543 1545 1546 1547 1548 1549 1550 1550 1551 1551 1551 1552 1552 1553 1553 1554 1554 1554 1555 1555 1556 1556 1556 1557 1557 1558 1558 1558 1557 1557 1557 1556 1556 1556
1528 1530 1532 1533 1536 1538 1539 1541 1543 1544 1546 1547 1548 1549 1550 1551 1552 1552 1552 1553 1553 1553 1554 1554 1554 1555 1555 1556 1556 1557 1557 1558 1558 1558 1560 1559 1559 1558 1558 1558 1558 1557 1557
1529 1531 1532 1534 1536 1538 1540 1542 1543 1545 1546 1548 1549 1550 1551 1552 1553 1553 1553 1554 1554 1554 1554 1555 1555 1556 1556 1556 1557 1558 1558 1558 1559 1559 1560 1559 1559 1559 1559 1559 1559 1558 1558
1530 1532 1533 1535 1537 1539 1541 1542 1544 1546 1547 1548 1550 1551 1552 1553 1554 1554 1554 1554 1555 1555 1555 1555 1556 1556 1557 1557 1558 1558 1559 1559 1559 1560 1560 1560 1560 1560 1560 1560 1559 1559 1559
1531 1533 1534 1536 1538 1540 1541 1543 1545 1546 1548 1549 1551 1552 1553 1554 1554 1554 1555 1555 1555 1555 1556 1556 1556 1557 1557 1558 1559 1559 1559 1560 1561 1560 1560 1560 1560 1560 1560 1560 1560 1560 1560
1532 1533 1535 1536 1538 1540 1541 1543 1545 1547 1548 1550 1551 1552 1553 1554 1554 1555 1555 1555 1555 1556 1556 1557 1557 1558 1558 1559 1559 1560 1560 1560 1561 1561 1561 1561 1560 1560 1561 1561 1561 1561 1561
1532 1534 1536 1536 1537 1539 1541 1543 1545 1547 1548 1550 1551 1552 1553 1554 1555 1555 1555 1555 1556 1556 1557 1557 1558 1559 1560 1560 1561 1561 1561 1561 1563 1562 1562 1561 1560 1560 1561 1561 1561 1561 1561
1532 1534 1536 1537 1539 1540 1541 1543 1545 1547 1548 1549 1551 1552 1553 1554 1554 1555 1556 1555 1556 1556 1557 1558 1559 1560 1560 1561 1561 1562 1562 1562 1563 1563 1562 1561 1560 1560 1561 1561 1561 1562 1562
1531 1534 1536 1537 1539 1540 1542 1542 1544 1546 1548 1549 1550 1551 1552 1554 1556 1556 1556 1555 1556 1556 1557 1558 1559 1560 1561 1561 1562 1562 1562 1564 1563 1563 1562 1560 1560 1560 1561 1561 1561 1562 1562
1530 1532 1534 1537 1538 1540 1541 1542 1543 1545 1546 1548 1550 1551 1553 1555 1556 1557 1555 1555 1556 1557 1558 1558 1559 1560 1561 1563 1562 1562 1564 1563 1564 1563 1561 1560 1560 1560 1560 1561 1561 1562 1562
1529 1531 1533 1535 1537 1539 1540 1541 1542 1544 1545 1547 1549 1550 1552 1554 1554 1555 1556 1556 1557 1557 1560 1559 1560 1562 1563 1563 1564 1564 1563 1564 1563 1563 1561 1559 1559 1559 1560 1560 1561 1562 1562
1528 1530 1532 1534 1536 1537 1539 1540 1541 1543 1544 1546 1548 1550 1551 1552 1554 1555 1556 1557 1558 1558 1559 1561 1562 1562 1563 1564 1564 1564 1563 1563 1562 1562 1560 1559 1559 1559 1559 1560 1560 1561 1561
1526 1528 1530 1532 1534 1536 1538 1539 1540 1542 1544 1546 1547 1549 1550 1551 1553 1553 1555 1555 1557 1559 1559 1560 1562 1563 1563 1564 1564 1564 1563 1562 1562 1561 1560 1558 1558 1558 1559 1559 1559 1560 1560
1525 1527 1529 1530 1532 1534 1536 1537 1539 1541 1542 1544 1545 1547 1549 1550 1551 1552 1554 1554 1556 1558 1559 1560 1562 1562 1563 1563 1564 1563 1563 1562 1562 1560 1560 1559 1558 1558 1558 1558 1559 1559 1559
1524 1526 1527 1528 1530 1532 1534 1536 1538 1539 1541 1542 1543 1546 1548 1549 1550 1551 1553 1554 1555 1556 1558 1559 1561 1561 1562 1563 1563 1563 1563 1562 1561 1561 1560 1559 1559 1558 1558 1558 1558 1558 1559
1522 1524 1525 1525 1527 1530 1531 1533 1535 1537 1539 1540 1542 1543 1546 1548 1549 1550 1551 1552 1554 1556 1557 1558 1559 1560 1561 1562 1562 1563 1562 1561 1562 1561 1561 1560 1559 1559 1558 1557 1557 1558 1558
1519 1520 1522 1523 1525 1527 1529 1531 1533 1535 1536 1538 1539 1541 1543 1546 1547 1548 1549 1550 1552 1553 1555 1557 1558 1560 1560 1561 1561 1561 1562 1561 1561 1560 1561 1561 1559 1558 1558 1557 1557 1557 1557
1514 1516 1518 1519 1521 1524 1525 1528 1529 1532 1533 1535 1536 1538 1540 1543 1544 1546 1547 1548 1550 1551 1552 1554 1556 1557 1558 1558 1559 1559 1560 1560 1560 1560 1560 1560 1560 1559 1558 1558 1558 1557 1557
1508 1510 1512 1514 1516 1519 1521 1523 1525 1528 1530 1532 1533 1535 1536 1539 1541 1543 1544 1546 1547 1549 1550 1552 1553 1554 1555 1556 1557 1558 1558 1558 1559 1558 1558 1559 1559 1558 1557 1557 1557 1557 1557
1501 1503 1505 1508 1510 1512 1515 1518 1521 1525 1527 1529 1531 1532 1534 1536 1538 1540 1541 1543 1544 1545 1546 1548 1549 1550 1551 1553 1555 1556 1556 1556 1554 1555 1556 1556 1557 1556 1556 1556 1557 1556 1557
1495 1496 1498 1501 1504 1506 1509 1513 1517 1520 1523 1525 1528 1530 1531 1533 1534 1536 1538 1539 1540 1542 1542 1543 1545 1546 1547 1548 1550 1552 1553 1552 1552 1553 1553 1554 1554 1555 1555 1555 1556 1556 1555
1490 1490 1491 1494 1497 1500 1502 1506 1511 1515 1519 1522 1525 1527 1528 1530 1531 1533 1534 1535 1537 1538 1539 1540 1540 1541 1543 1544 1545 1546 1548 1549 1550 1550 1550 1551 1551 1552 1553 1553 1553 1554 1554
1486 1485 1486 1488 1491 1494 1497 1500 1504 1509 1513 1518 1521 1524 1526 1527 1527 1529 1530 1531 1533 1534 1535 1536 1537 1537 1538 1539 1540 1541 1542 1543 1545 1546 1547 1548 1548 1549 1549 1550 1551 1551 1552
1485 1483 1483 1484 1486 1489 1492 1495 1498 1503 1507 1513 1518 1521 1523 1524 1524 1525 1527 1528 1529 1531 1532 1533 1533 1533 1534 1535 1536 1537 1538 1538 1539 1541 1542 1543 1544 1545 1546 1546 1547 1548 1549